Regional Weather Roundup
Issued by NWS

Home | Current Version | Previous Version | Graphics & Text | Print | Product List | Glossary On
Versions: 1 2 3 4 5 6 7 8 9 10 11 12 13 14 15 16 17 18 19 20 21 22 23 24 25 26 27 28 29 30 31 32 33 34 35 36 37 38 39 40 41 42 43 44 45 46 47 48 49 50
000
ASUS43 KMPX 262101
RWRMN
WEATHER ROUNDUP FOR MINNESOTA
NATIONAL WEATHER SERVICE TWIN CITIES/CHANHASSEN MN
300 PM CST WED NOV 26 2014


NOTE: "FAIR" INDICATES FEW OR NO CLOUDS BELOW 12,000 FEET WITH NO
SIGNIFICANT WEATHER AND/OR OBSTRUCTIONS TO VISIBILITY. N/A MEANS
CURRENT SKY AND/OR WEATHER CONDITIONS ARE NOT AVAILABLE.

MNZ060>063-068>070-262200-
   Twin Cities Metro

CITY           SKY/WX    TMP DP  RH WIND       PRES   REMARKS
TWIN CITIES    CLOUDY    25  18  74 N8        30.22R WCI  16
ST PAUL        CLOUDY    26  18  71 N9        30.24R WCI  17
CRYSTAL        CLOUDY    26  17  68 N10       30.23R WCI  16
LAKEVILLE      MIX PCPN  25  21  86 N8        30.20R WCI  16
EDEN PRAIRIE   CLOUDY    25  18  74 NW12      30.21R WCI  14
SOUTH ST PAUL  CLOUDY    27  20  75 N6        30.22R WCI  20
LAKE ELMO      PTSUNNY   27  19  74 N8        30.22R WCI  18
$$
MNZ001>005-007-008-013>017-022>024-027-028-262200-
   Northwest Minnesota

CITY           SKY/WX    TMP DP  RH WIND       PRES   REMARKS
BEMIDJI        SUNNY      7  -8  52 N10       30.32R WCI  -8
HALLOCK        SUNNY      0  -9  65 N14       30.48R WCI -19
ROSEAU         SUNNY      3  -9  55 N8        30.41S WCI -10
WARROAD        SUNNY      1  -8  66 NW7       30.40R WCI -11
THIEF RVR FALL SUNNY      1  -8  66 NW10      30.41R WCI -14
CROOKSTON      SUNNY      1  -6  71 N14       30.47R WCI -17
FOSSTON        SUNNY      3  -8  60 NW10      30.39R WCI -12
DETROIT LAKES  MOSUNNY    5   0  78 N14       30.36R WCI -12
MOORHEAD       MOSUNNY    3  -2  78 N15       30.44R WCI -15
PARK RAPIDS    CLOUDY    11  -6  46 NW13      30.28R WCI  -4
MAHNOMEN       FAIR       4  -5  66 N14       30.37R WCI -14
$$
MNZ006-009>011-018-025>026-262200-
   North Central Minnesota

CITY           SKY/WX    TMP DP  RH WIND       PRES   REMARKS
BAUDETTE       SUNNY      0  -9  65 NW12      30.37R WCI -17
FLAG ISLAND    CLEAR      0  -9  65 NW9       30.39R WCI -16
INTL FALLS     PTCLDY     6  -5  60 N9        30.32R WCI  -8
WASKISH        SUNNY      5  -6  61 N7        30.35R WCI  -7
BIG FORK       SUNNY     10  -4  52 NW7       30.29R WCI   0
LONGVILLE      SUNNY     12   0  57 NW8       30.28R WCI   1
GRAND RAPIDS   SUNNY     12   0  57 NW14      30.24R WCI  -3
CRANE LAKE     CLEAR      9  -2  61 N5        30.31R WCI   0
ORR            CLEAR      9  -6  52 NW8       30.24R WCI  -4
COOK           CLEAR     10  -2  56 NW8       30.25R WCI  -1
WALKER         FAIR      10  -8  43 NW7       30.29R WCI  -1
$$
MNZ012-019>021-037-262200-
   Northeast Minnesota

CITY           SKY/WX    TMP DP  RH WIND       PRES   REMARKS
DULUTH         FLURRIES  18   7  62 NW10      30.19R WCI   6
ELY            MOCLDY    12   3  67 NW8G16    30.22R WCI   1
HIBBING        MOSUNNY   15   2  56 NW13      30.24R WCI   1
EVELETH        MOSUNNY   14   3  62 NW7       30.24R WCI   4
DULUTH HARBOR  CLOUDY    23  12  63 NW12      30.26R WCI  12
TWO HARBORS    CLOUDY    21  10  63 N8        30.20R WCI  12
SILVER BAY     PTCLDY    19   9  63 NW5       30.19R WCI  13
GRAND MARAIS     N/A     19   6  57 N13       30.22R WCI   6
G MARAIS ARPRT LGT SNOW  10   3  72 NW8       30.14R WCI  -1
$$
MNZ029>031-032-039>041-046>048-054>057-064-262200-
   West Central Minnesota

CITY           SKY/WX    TMP DP  RH WIND       PRES   REMARKS
FERGUS FALLS   PTSUNNY    9  -2  61 N14G23    30.39R WCI  -8
WHEATON        PTSUNNY    7   0  72 NW17      30.41R WCI -12
MORRIS         CLOUDY    10   5  79 NW21G28   30.32R WCI  -9
ALEXANDRIA     CLOUDY    16   8  71 NW15      30.27R WCI   1
ELBOW LAKE     CLOUDY    10   0  63 N15G21    30.33R WCI  -6
WADENA         PTSUNNY   14   3  62 N12       30.28R WCI   0
GLENWOOD       CLOUDY    18  10  73 NW10      30.27R WCI   6
APPLETON       CLOUDY    12   7  79 NW20      30.35R WCI  -6
BENSON         PTSUNNY   12   9  85 N20       30.31R WCI  -6
ORTONVILLE     PTSUNNY    9   1  72 N17G24    30.36R WCI -10
MADISON        PTSUNNY   16   9  73 N17       30.36R WCI   0
WILLMAR        FAIR      21  12  68 N10       30.28R WCI  10
$$
MNZ033>034-036-042>043-049>051-058-059-262200-
   Central Minnesota

CITY           SKY/WX    TMP DP  RH WIND       PRES   REMARKS
ST CLOUD       MOSUNNY   24  12  60 N13       30.24R WCI  12
SAUK CENTRE    MOCLDY    19   8  62 N10       30.27R WCI   8
PAYNESVILLE    CLOUDY    19  13  79 W12       30.26R WCI   6
AITKIN         PTSUNNY   21   7  53 NW6       30.24R WCI  14
PINE RIVER     SUNNY     14   1  57 N13       30.30R WCI   0
BRAINERD       MOSUNNY   15   5  64 N13       30.26R WCI   1
STAPLES        CLOUDY    16   3  57 N10       30.28R WCI   3
LONG PRAIRIE   PTSUNNY   19   9  63 NW10G16   30.27R WCI   8
LITTLE FALLS   SUNNY     21   9  58 N6        30.26R WCI  14
LITCHFIELD     PTSUNNY   23  18  80 N10       30.25R WCI  12
BUFFALO        CLOUDY    24  17  72 NW7       30.25R WCI  16
MAPLE LAKE     PTSUNNY   25  19  77 NW9       30.25R WCI  15
$$
MNZ037-044-045-052-053-262200-
   East Central Minnesota

CITY           SKY/WX    TMP DP  RH WIND       PRES   REMARKS
PRINCETON      PTSUNNY   25  16  68 NW9       30.24R WCI  15
MORA           MOSUNNY   23  12  63 NW9       30.25R WCI  13
CAMBRIDGE      PTSUNNY   27  16  63 N3        30.22R
RUSH CITY      CLOUDY    24  15  69 N7        30.23R WCI  16
MOOSE LAKE     MOSUNNY   23  10  58 N8        30.21R WCI  14
HINCKLEY       FAIR      25  14  63 NW7       30.23R WCI  17
CLOQUET        MOSUNNY   18   7  62 NW12      30.21R WCI   5
MCGREGOR       MOSUNNY   19   9  63 NW12      30.24R WCI   7
$$
MNZ071>073-080-081-089-090-097-098-262200-
   Southwest Minnesota

CITY           SKY/WX    TMP DP  RH WIND       PRES   REMARKS
MONTEVIDEO     CLOUDY    12   9  85 N15G22    30.33R WCI  -4
GRANITE FALLS  CLOUDY    13   9  82 NW15      30.33R HAZE    WCI  -3
CANBY          MOSUNNY   12   6  77 NW15G21   30.35R WCI  -4
MARSHALL       CLOUDY    12   5  73 NW21      30.30R WCI  -6
REDWOOD FALLS  CLOUDY    19  13  77 NW12G23   30.27R WCI   7
OLIVIA         CLOUDY    21  16  79 NW15G21   30.27R WCI   8
PIPESTONE      CLOUDY    14   9  79 N13G18    30.27R WCI   0
WINDOM         CLOUDY    18  14  86 NW22      30.23R FOG     WCI   0
WORTHINGTON    CLOUDY    18  12  79 N22       30.23R WCI   0
JACKSON        CLOUDY    19  16  86 NW17G26   30.21R WCI   4
TRACY          CLOUDY    15  11  86 NW18G24   30.28R FOG     WCI  -2
SLAYTON        CLOUDY    15  13  92 N16G22    30.25R FOG     WCI  -1
$$
MNZ065>067-074>077-082>085-091>093-262200-
   South Central Minnesota

CITY           SKY/WX    TMP DP  RH WIND       PRES   REMARKS
MANKATO        CLOUDY    25  19  80 N12       30.21R WCI  14
NEW ULM        MOSUNNY   25  19  80 N15       30.23R WCI  12
ST JAMES       PTSUNNY   25  21  86 NW20      30.24R WCI  11
FAIRMONT       CLOUDY    25  19  80 N17       30.19R WCI  11
GLENCOE        PTSUNNY   26  20  80 N13G18    30.23R WCI  15
FARIBAULT      PTSUNNY   27  21  80 NE5       30.19R FOG     WCI  21
OWATONNA       LGT SNOW  25  21  86 NE9       30.18R WCI  15
WASECA         LGT SNOW  23  19  86 N13       30.20R WCI  11
ALBERT LEA     LGT SNOW  25  25 100 N9        30.16R WCI  15
$$
MNZ078>079-086>088-094>096-262200-
   Southeast Minnesota

CITY           SKY/WX    TMP DP  RH WIND       PRES   REMARKS
ROCHESTER      LGT SNOW  24  21  88 N12       30.16R FOG     WCI  13
RED WING       MIX PCPN  27  21  80 N3        30.20R
STANTON        LGT SNOW  26  22  85 N6        30.19R WCI  20
DODGE CENTER   LGT SNOW  25  23  93 N7        30.16R WCI  17
WINONA         LGT SNOW  28  25  86 N3        30.19R VSB 1
AUSTIN         LGT SNOW  25  21  86 N7        30.15R WCI  17
PRESTON        LGT SNOW  24  21  89 NE10      30.15R WCI  13
$$
ABBREVIATIONS USED IN REMARKS
   TC - TEMPERATURES IN CELSIUS
  WCI - WIND CHILL INDEX
   HX - HEAT INDEX
  VSB - VISIBILITY
$$



USA.gov is the U.S. government's official web portal to all federal, state and local government web resources and services.